Weather History for Ahoskie, NC

Change the Weather History Date:

Thursday, December 13, 2012

  Actual Average (KEMV) Record (KEMV)
Temperature  
Mean Temperature 41 °F -  
Max Temperature 50 °F 51 °F 72 °F (1985)
Min Temperature 32 °F 30 °F 10 °F (1988)
Degree Days  
Heating Degree Days 24    
Moisture  
Dew Point 36 °F    
Average Humidity 81    
Maximum Humidity 91    
Minimum Humidity 64    
Precipitation  
Precipitation 0.23 in - - ()
Sea Level Pressure  
Sea Level Pressure 30.33 in    
Wind  
Wind Speed 8 mph (North)    
Max Wind Speed 16 mph    
Max Gust Speed 23 mph    
Visibility 10 miles    
Events Rain    
Averages and records for this station are not official NWS values.
T = Trace of Precipitation, MM = Missing Value Source: NWS Daily Summary

Daily Weather History Graph

Daily Weather History Graph

Search for Another Location

Airport:

Trip Planner

Search our weather history database for the weather conditions in past years. The results will help you decide how hot, cold, wet, or windy it might be!

Date:

Astronomy

Dec. 13, 2012 Rise Set
Actual Time 7:11 AM EST 4:54 PM EST
Civil Twilight 6:43 AM EST 5:23 PM EST
Nautical Twilight 6:10 AM EST 5:55 PM EST
Astronomical Twilight 5:39 AM EST 6:26 PM EST
Moon 7:18 AM EST (12/13) 5:33 PM EST (12/13)
Length of Visible Light 10h 40m
Length of Day
9h 42m
New Moon, 0% of the Moon is Illuminated
Dec 13
New Moon
Dec 20
First Quarter
Dec 28
Full
Jan 4
Last Quarter
Jan 11
New

Hourly Weather History & Observations

Time (EST) Temp. Windchill Dew Point Humidity Pressure Visibility Wind Dir Wind Speed Gust Speed Precip Events Conditions
12:15 AM 38.5 °F 34.1 °F 35.1 °F 87% 30.29 in 10.0 mi North 5.8 mph - 0.01 in Rain Rain
12:35 AM 38.7 °F 33.6 °F 35.1 °F 87% 30.30 in 10.0 mi North 6.9 mph - 0.02 in Rain Rain
12:55 AM 38.3 °F 33.9 °F 34.9 °F 87% 30.29 in 10.0 mi North 5.8 mph - 0.04 in Rain Rain
1:15 AM 38.3 °F 33.9 °F 34.9 °F 87% 30.29 in 10.0 mi North 5.8 mph - 0.02 in Rain Rain
1:35 AM 38.1 °F 34.6 °F 34.9 °F 88% 30.32 in 10.0 mi NNW 4.6 mph - 0.03 in Rain Light Rain
1:55 AM 38.3 °F 31.4 °F 34.7 °F 87% 30.30 in 10.0 mi North 10.4 mph - 0.04 in Rain Light Rain
2:15 AM 38.3 °F 32.5 °F 35.2 °F 89% 30.30 in 10.0 mi North 8.1 mph - 0.01 in Rain Light Rain
2:35 AM 38.3 °F 33.9 °F 34.9 °F 87% 30.31 in 10.0 mi North 5.8 mph - 0.01 in   Overcast
2:55 AM 38.7 °F 33.6 °F 35.6 °F 89% 30.32 in 10.0 mi North 6.9 mph - 0.01 in Rain Light Rain
3:15 AM 38.3 °F 34.8 °F 35.2 °F 89% 30.33 in 10.0 mi NNW 4.6 mph - 0.02 in Rain Rain
3:35 AM 37.8 °F 33.3 °F 34.9 °F 89% 30.31 in 7.0 mi NNW 5.8 mph - 0.06 in Rain Rain
4:15 AM 37.6 °F 32.3 °F 34.9 °F 90% 30.31 in 5.0 mi North 6.9 mph - 0.03 in Rain Rain
4:35 AM 37.6 °F 29.6 °F 34.9 °F 90% 30.29 in 7.0 mi North 12.7 mph - 0.05 in Rain Light Rain
4:55 AM 37.6 °F 28.4 °F 34.9 °F 90% 30.28 in 7.0 mi North 16.1 mph 21.9 mph 0.07 in Rain Rain
5:35 AM 37.6 °F 30.0 °F 34.9 °F 90% 30.28 in 10.0 mi North 11.5 mph - 0.01 in   Light Drizzle
5:55 AM 37.8 °F 31.3 °F 35.1 °F 90% 30.31 in 10.0 mi North 9.2 mph - 0.01 in   Mostly Cloudy
6:15 AM 37.6 °F 30.5 °F 34.7 °F 89% 30.31 in 10.0 mi North 10.4 mph 17.3 mph N/A   Mostly Cloudy
6:35 AM 37.6 °F 31.6 °F 34.7 °F 89% 30.30 in 10.0 mi North 8.1 mph - N/A   Scattered Clouds
6:55 AM 37.6 °F 30.5 °F 34.3 °F 88% 30.31 in 10.0 mi North 10.4 mph - N/A   Scattered Clouds
7:15 AM 37.6 °F 31.6 °F 34.0 °F 87% 30.32 in 10.0 mi North 8.1 mph - N/A   Clear
7:35 AM 36.7 °F 29.9 °F 33.3 °F 87% 30.32 in 10.0 mi North 9.2 mph - N/A   Clear
7:55 AM 37.6 °F 31.6 °F 33.8 °F 86% 30.33 in 10.0 mi North 8.1 mph - N/A   Mostly Cloudy
8:15 AM 37.6 °F 31.0 °F 33.3 °F 84% 30.33 in 10.0 mi North 9.2 mph - N/A   Overcast
8:35 AM 38.1 °F 32.3 °F 33.3 °F 83% 30.34 in 10.0 mi North 8.1 mph 17.3 mph N/A   Overcast
8:55 AM 38.8 °F 32.1 °F 33.4 °F 81% 30.35 in 10.0 mi North 10.4 mph - N/A   Mostly Cloudy
9:35 AM 40.3 °F 34.4 °F 34.5 °F 80% 30.36 in 10.0 mi North 9.2 mph 17.3 mph N/A   Scattered Clouds
9:55 AM 42.6 °F 36.3 °F 36.7 °F 79% 30.35 in 10.0 mi North 11.5 mph 19.6 mph N/A   Scattered Clouds
10:15 AM 45.1 °F 38.4 °F 38.3 °F 77% 30.35 in 10.0 mi North 15.0 mph 20.7 mph N/A   Scattered Clouds
10:35 AM 45.1 °F 40.3 °F 38.3 °F 77% 30.35 in 10.0 mi North 9.2 mph - N/A   Mostly Cloudy
10:55 AM 45.1 °F 38.1 °F 37.9 °F 76% 30.35 in 10.0 mi North 16.1 mph 23.0 mph N/A   Scattered Clouds
11:35 AM 45.1 °F 39.5 °F 36.7 °F 72% 30.35 in 10.0 mi North 11.5 mph - N/A   Mostly Cloudy
11:55 AM 45.9 °F 40.0 °F 37.2 °F 72% 30.35 in 10.0 mi North 12.7 mph - N/A   Mostly Cloudy
12:15 PM 50.0 °F - 40.3 °F 69% 30.35 in 10.0 mi North 10.4 mph - N/A   Clear
12:35 PM 50.0 °F - 39.7 °F 68% 30.34 in 10.0 mi NNE 12.7 mph 17.3 mph N/A   Scattered Clouds
12:55 PM 50.0 °F - 39.9 °F 68% 30.34 in 10.0 mi North 13.8 mph 17.3 mph N/A   Mostly Cloudy
1:15 PM 50.0 °F - 39.9 °F 68% 30.33 in 10.0 mi North 10.4 mph 17.3 mph N/A   Mostly Cloudy
1:35 PM 50.0 °F - 39.4 °F 67% 30.33 in 10.0 mi North 10.4 mph 16.1 mph N/A   Mostly Cloudy
1:55 PM 50.0 °F - 39.0 °F 66% 30.33 in 10.0 mi NNE 9.2 mph - N/A   Mostly Cloudy
2:15 PM 50.0 °F - 39.2 °F 66% 30.33 in 10.0 mi NNE 10.4 mph 16.1 mph N/A   Overcast
2:35 PM 50.2 °F - 38.7 °F 65% 30.33 in 10.0 mi NNE 11.5 mph 17.3 mph N/A   Overcast
2:55 PM 50.2 °F - 38.7 °F 65% 30.33 in 10.0 mi NNE 8.1 mph - N/A   Mostly Cloudy
3:15 PM 50.0 °F - 38.7 °F 65% 30.33 in 10.0 mi NNE 10.4 mph - N/A   Scattered Clouds
3:35 PM 50.0 °F - 38.3 °F 64% 30.33 in 10.0 mi North 9.2 mph - N/A   Scattered Clouds
3:55 PM 50.0 °F - 38.7 °F 65% 30.34 in 10.0 mi NNE 8.1 mph - N/A   Clear
4:15 PM 50.0 °F - 39.6 °F 67% 30.34 in 10.0 mi North 8.1 mph - N/A   Clear
4:35 PM 50.0 °F - 40.3 °F 69% 30.34 in 10.0 mi NNE 5.8 mph - N/A   Clear
4:55 PM 46.8 °F - 38.3 °F 72% 30.34 in 10.0 mi North 5.8 mph - N/A   Clear
5:15 PM 45.1 °F 42.8 °F 38.7 °F 78% 30.33 in 10.0 mi NNE 4.6 mph - N/A   Clear
5:35 PM 45.1 °F 43.7 °F 39.2 °F 80% 30.33 in 10.0 mi North 3.5 mph - N/A   Clear
6:15 PM 44.1 °F 40.8 °F 38.5 °F 81% 30.34 in 10.0 mi North 5.8 mph - N/A   Clear
6:35 PM 42.8 °F 39.3 °F 37.2 °F 81% 30.35 in 10.0 mi North 5.8 mph - N/A   Clear
7:35 PM 40.1 °F 36.9 °F 34.7 °F 81% 30.36 in 10.0 mi North 4.6 mph - N/A   Clear
7:55 PM 38.7 °F 36.3 °F 33.3 °F 81% 30.36 in 10.0 mi North 3.5 mph - N/A   Clear
8:55 PM 37.6 °F - 33.1 °F 84% 30.36 in 10.0 mi Calm Calm - N/A   Clear
9:15 PM 35.2 °F - 32.4 °F 89% 30.36 in 10.0 mi Calm Calm - N/A   Clear
9:35 PM 35.1 °F - 32.2 °F 89% 30.36 in 10.0 mi Calm Calm - N/A   Clear
9:55 PM 35.1 °F - 32.2 °F 89% 30.36 in 10.0 mi Calm Calm - N/A   Clear
10:35 PM 32.5 °F - 29.7 °F 89% 30.37 in 10.0 mi Calm Calm - N/A   Clear
10:55 PM 32.9 °F - 30.4 °F 90% 30.37 in 10.0 mi Calm Calm - N/A   Clear
11:15 PM 33.1 °F - 30.7 °F 91% 30.36 in 10.0 mi Calm Calm - N/A   Clear
11:35 PM 32.5 °F - 30.0 °F 90% 30.36 in 10.0 mi Calm Calm - N/A   Clear
11:55 PM 32.0 °F - 29.7 °F 91% 30.35 in 10.0 mi Calm Calm - N/A   Clear